Weather in Ust-Katun

Russia / Altai Krai     52°25′07″N   85°03′29″E
temp.,
°C
wind,
m/s
gust,
m/s
humid.,
%
clouds,
%
prec.,
mm/h
press.,
hPa
HPBL,
m
4 august, wed
wed401:00+18nnw227178 0.1 100720
04:00+15wnw229056 0.3 100717
07:00+15wsw3693100 0.6 1008178
10:00+20wsw457797 0.4 1008572
13:00+24w345462 2.3 10081126
16:00+27w363782 0.0 10062411
19:00+24w244617 0.0 1006225
22:00+19nne225869 0.0 100727
5 august, thu
thu501:00+17s11685 0.0 100611
04:00+14sw349252 0.5 100657
07:00+14wsw2492100 0.8 1007118
10:00+15w3594100 1.9 1007227
13:00+19ssw347722 4.4 1007612
16:00+22w456615 1.2 10061088
19:00+21w476087 1.4 1005294
22:00+17sw3477100 0.3 100785
6 august, fri
fri601:00+16sw3685100 0.3 1007140
04:00+15wsw258691 0.0 1006120
07:00+15wsw248962 0.1 1007120
10:00+18wsw467598 0.1 1008453
13:00+23w455359 0.4 10071593
16:00+25wnw564641 0.3 10071788
19:00+23w345354 0.4 10071091
22:00+17sw227942 0.7 100820
7 august, sat
sat701:00+16ssw228186 1.6 100843
04:00+15s238221 0.0 100850
07:00+15sse118310 0.0 101027
10:00+21ese216064 0.0 1010492
13:00+26ene2144100 0.0 10091539
16:00+26ne324199 0.0 10091737
19:00+25ne3451100 0.0 1010568
22:00+19ene2267100 0.0 101111
8 august, sun
sun801:00+17e228099 0.0 101115
04:00+15ene228770 0.0 101113
07:00+16e238599 0.0 101274
10:00+22e2260100 0.0 1012539
13:00+26ene324384 0.0 10111405
16:00+28ne324023 0.0 10101808
19:00+27ene33471 0.0 10101036
22:00+20e33660 0.0 101030